Meath Environmental Platform

Observations for Trim Market St

Time AQI Temp °C Hum % Pres Pa CO μg/m³ H₂S μg/m³ NO μg/m³ NO₂ μg/m³ O₃ μg/m³ SO₂ μg/m³ PM1 μg/m³ PM2.5 μg/m³ PM10 μg/m³
Sunday 23 August 2026
12:30 2 24.4 37 65,655 0.22 0 1.64 12.29 70.69 0 1.43 4.59 5.05
12:29 2 24.4 38 65,635 0.17 0 1.63 16.21 71.02 0 2.14 4.59 5.04
12:28 2 24.3 38 65,613 0.2 0 1.65 18.14 69.65 0 1.43 3.51 3.86
12:27 2 24.2 38 65,613 0.16 0 1.63 17.43 67.71 0 1.43 4.57 5.02
12:26 2 24.1 38 65,588 0.11 0 1.22 12.17 70.72 0 1.43 3.5 3.85
12:25 2 24.1 38 65,582 0.07 0 1.29 11.37 70.78 0 0.71 4.55 5.01
12:24 2 24 38 65,602 0.08 0 1.23 10.4 70.64 0 0 3.49 3.83
12:23 2 23.9 38 65,602 0.05 0 1.22 9.79 71.19 0 0 2.95 3.25
12:22 2 23.8 39 65,603 0.04 0 1.21 9.15 69.79 0 0 4 4.4
12:21 2 23.7 39 65,574 0.04 0 1.18 11.41 69.99 0 0 2.93 3.23
12:20 2 23.6 39 65,564 0.03 0 1.04 9.58 71.18 0 0.71 3.46 3.81
12:19 2 23.5 39 65,556 0.04 0 1.03 11.47 69.72 0 0.71 3.99 4.28
12:01 2 22.9 39 65,540 0.02 0 1.18 12.84 68.41 0 0 2.92 3.21
12:00 2 22.9 39 65,532 0.03 0 1.18 8.92 68.75 0 0 3.45 3.8
11:59 2 22.9 39 65,523 0 0 1.07 7.61 72.7 0 0 2.92 3.21
11:58 2 22.9 39 65,536 0 0 1.08 6.79 69.73 0 0.71 3.98 4.37
11:57 2 22.9 39 65,529 0 0 1.15 7.09 70.24 0 0 2.38 2.62
11:55 2 22.9 39 65,542 0 0 1.25 5.53 67.67 0 0 2.38 2.62
11:54 2 22.9 39 65,538 0.04 0 1.39 6.84 70.46 0 0.71 3.98 4.37
11:53 2 23 39 65,527 0.04 0 1.39 7.41 70.48 0 0 2.38 2.62